Home   Weather   Winnipeg   Past weeks

Flag for Canada Past Weather in Winnipeg, Manitoba, Canada — Yesterday and Last 2 Weeks

Now
28 °F

Chilly.


Feels Like: 24 °F
Forecast: 24 / 30 °F
Wind: 3 mph from Southwest

Location: Winnipeg The Forks Man

Current Time: Dec 3, 2016 at 1:48:32 pm

Latest Report: Dec 3, 2016 at 1:00 pm


Visibility: N/A

Pressure: 30.08 "Hg

Humidity: 83%

Dew Point: 23 °F

Location of WinnipegLocation

Past Weather in Winnipeg — Graph

°F

Winnipeg Temperature Yesterday

Maximum temperature yesterday: 29 °F (at 5:00 pm)
Minimum temperature yesterday: 25 °F (at 5:00 am)
Average temperature yesterday: 27 °F

High & Low Weather Summary for the Past Weeks

 TemperatureHumidityPressure
High41 °F (Nov 26, 3:00 pm)100% (Nov 23, 3:00 am)30.49 "Hg (Nov 23, 3:00 am)
Low20 °F (Nov 19, 7:00 am)47% (Nov 19, 3:00 pm)29.08 "Hg (Nov 28, 2:00 pm)
Average31 °F84%30.00 "Hg
* Reported Nov 18 12:00 pm — Dec 3 12:00 pm, Winnipeg, Weather by CustomWeather, © 2016

Note: Actual official high and low records may vary slightly from our data, if they occured in-between our weather recording intervals... More about our weather records

Advertising

Winnipeg Weather History for the Previous 24 Hours

Scroll right to see more
 ConditionsComfort  
Time TempWeatherWind HumidityBarometerVisibility
12:00 pm
Sat, Dec 3
28 °FChilly.5 mph82%30.10 "HgN/A
11:00 am28 °FChilly.6 mph79%30.12 "HgN/A
10:00 am28 °FChilly.5 mph79%30.14 "HgN/A
9:00 am28 °FChilly.3 mph81%30.14 "HgN/A
8:00 am28 °FChilly.6 mph80%30.15 "HgN/A
7:00 am28 °FChilly.2 mph86%30.16 "HgN/A
6:00 am28 °FChilly.1 mph89%30.17 "HgN/A
5:00 am29 °FChilly.1 mph83%30.19 "HgN/A
4:00 am29 °FChilly.1 mph82%30.20 "HgN/A
3:00 am29 °FChilly.1 mph80%30.22 "HgN/A
2:00 am28 °FChilly.1 mph82%30.23 "HgN/A
1:00 am28 °FChilly.1 mph82%30.25 "HgN/A
12:00 am28 °FChilly.1 mph83%30.26 "HgN/A
11:00 pm
Fri, Dec 2
28 °FChilly.1 mph82%30.25 "HgN/A
10:00 pm28 °FChilly.1 mph82%30.27 "HgN/A
9:00 pm27 °FChilly.1 mph81%30.27 "HgN/A
8:00 pm27 °FChilly.1 mph81%30.28 "HgN/A
7:00 pm28 °FChilly.1 mph80%30.28 "HgN/A
6:00 pm28 °FChilly.1 mph80%30.29 "HgN/A
5:00 pm29 °FChilly.2 mph74%30.29 "HgN/A
4:00 pm28 °FChilly.1 mph77%30.29 "HgN/A
3:00 pm28 °FChilly.2 mph77%30.28 "HgN/A
2:00 pm28 °FChilly.2 mph77%30.29 "HgN/A
1:00 pm28 °FChilly.2 mph77%30.28 "HgN/A
Weather by CustomWeather, © 2016

See weather overviewHow to use our weather pages